Content
SEND FEEDBACK

Daily
Averages
Monthly
Summary
United States of America

SPIRIT FALLS, WISCONSIN


Home > North America > United States > Wisconsin
Elevation: 1460 feet     Latitude: 45 27N     Longitude: 089 59W

WEATHER
 
SELECT A DAY
Number of Records: 256,866;   Date Range: 10/5/04 - 12/26/14
 
SHARE

PRINT THIS DATA

[ ← Previous Day ]
WEATHER ALMANAC - JANUARY 31, 2013
[ Next Day → ]
[ °C ]   °F
Weather ElementAverageHighLow
Temperature6 °F10.4 °F (12:35 am)-0.4 °F (10:15 pm)
Dewpoint-0.8 °F5 °F (12:35 am)-7.6 °F (11:55 pm)
Humidity74.1 %85 % (5:55 am)62 % (10:55 am)
Barometer29.74 in29.99 in (11:35 pm)29.50 in (12:35 am)
Wind Speed10.5 mph16.1 mph (11:35 am)
Wind Gust23 mph (11:35 am)
Weather ElementAverage
Visibility8.7 mi
Wind DirectionWNW (288.3 °)

Weather ElementTotal
Precipitation0.03 in
Heating Degree Days60 (Base 65)
Averaged from 71 records on January 31, 2013
WEATHER CONDITIONS BREAKOUT
WIND DIRECTION BREAKOUT
WEATHER BY HOUR - JANUARY 31, 2013
[ °C ]   °F
Local TimeTemperatureDewpointHumidityBarometerVisibilityWind DirectionWind SpeedGust SpeedPrecipitationEventsConditions
12:35 AM10.4 °F5.0 °F79 %29.50 in10.0 miWest (280°)11.5 mphOvercast
12:55 AM10.4 °F5.0 °F79 %29.50 in10.0 miWNW (290°)11.5 mphSnowLight Snow
1:15 AM10.4 °F5.0 °F79 %29.51 in10.0 miWest (280°)10.4 mph16.1 mphOvercast
1:35 AM10.4 °F5.0 °F79 %29.52 in10.0 miWNW (290°)15.0 mph19.6 mphOvercast
1:55 AM8.6 °F3.2 °F79 %29.53 in10.0 miWest (280°)10.4 mph17.3 mphOvercast
2:15 AM8.6 °F3.2 °F79 %29.54 in10.0 miWest (280°)11.5 mph17.3 mph0.01 inOvercast
2:35 AM8.6 °F3.2 °F79 %29.54 in10.0 miWNW (290°)8.1 mph0.01 inOvercast
2:55 AM8.6 °F3.2 °F79 %29.55 in10.0 miWest (280°)13.8 mph18.4 mph0.01 inOvercast
3:15 AM8.6 °F3.2 °F79 %29.55 in10.0 miWest (280°)11.5 mph19.6 mphOvercast
3:35 AM8.6 °F3.2 °F79 %29.55 in10.0 miWest (280°)11.5 mph18.4 mphOvercast
3:55 AM8.6 °F3.2 °F79 %29.55 in10.0 miWNW (290°)12.7 mph21.9 mphOvercast
4:15 AM8.6 °F1.4 °F73 %29.56 in10.0 miWest (280°)12.7 mphOvercast
4:35 AM8.6 °F1.4 °F73 %29.57 in10.0 miWest (280°)9.2 mphOvercast
4:55 AM6.8 °F1.4 °F79 %29.57 in10.0 miWest (270°)9.2 mphOvercast
5:15 AM6.8 °F1.4 °F79 %29.57 in10.0 miWest (270°)11.5 mph16.1 mphOvercast
5:35 AM6.8 °F1.4 °F79 %29.58 in10.0 miWest (280°)9.2 mph19.6 mphOvercast
5:55 AM5.0 °F1.4 °F85 %29.59 in10.0 miWest (280°)9.2 mphOvercast
6:15 AM5.0 °F-0.4 °F78 %29.59 in10.0 miWest (280°)13.8 mph17.3 mphOvercast
6:35 AM3.2 °F-0.4 °F85 %29.60 in10.0 miWNW (290°)9.2 mph17.3 mphScattered Clouds
6:55 AM3.2 °F-2.2 °F78 %29.61 in10.0 miWNW (290°)8.1 mphClear
7:15 AM3.2 °F-2.2 °F78 %29.62 in10.0 miWest (280°)10.4 mphClear
7:35 AM1.4 °F-4.0 °F78 %29.63 in10.0 miWest (270°)8.1 mphClear
7:55 AM1.4 °F-4.0 °F78 %29.64 in10.0 miWest (270°)9.2 mphClear
8:15 AM1.4 °F-4.0 °F78 %29.64 in10.0 miWest (270°)10.4 mphClear
8:35 AM3.2 °F-2.2 °F78 %29.65 in10.0 miWest (280°)10.4 mphClear
8:55 AM5.0 °F-0.4 °F78 %29.66 in10.0 miWest (280°)13.8 mph18.4 mphClear
9:15 AM5.0 °F-0.4 °F78 %29.67 in10.0 miWest (270°)13.8 mph18.4 mphClear
9:35 AM6.8 °F-0.4 °F72 %29.68 in10.0 miWNW (290°)9.2 mph19.6 mphClear
9:55 AM6.8 °F-0.4 °F72 %29.69 in10.0 miWNW (290°)10.4 mph19.6 mphClear
10:15 AM8.6 °F-0.4 °F67 %29.70 in10.0 miWNW (290°)15.0 mph19.6 mphClear
10:35 AM8.6 °F-0.4 °F67 %29.70 in10.0 miWNW (300°)12.7 mphScattered Clouds
10:55 AM10.4 °F-0.4 °F62 %29.71 in10.0 miWNW (290°)12.7 mph20.7 mphMostly Cloudy
11:15 AM8.6 °F-0.4 °F67 %29.71 in10.0 miNW (320°)12.7 mph20.7 mphScattered Clouds
11:35 AM10.4 °F-0.4 °F62 %29.71 in10.0 miWNW (290°)16.1 mph23.0 mphScattered Clouds
11:55 AM10.4 °F-0.4 °F62 %29.71 in10.0 miNW (310°)13.8 mph19.6 mphMostly Cloudy
12:15 PM10.4 °F1.4 °F67 %29.72 in5.0 miWNW (290°)9.2 mphHaze
12:35 PM10.4 °F1.4 °F67 %29.73 in7.0 miWNW (300°)12.7 mph19.6 mphOvercast
12:55 PM10.4 °F1.4 °F67 %29.73 in3.0 miWest (280°)15.0 mph19.6 mphHaze
1:15 PM10.4 °F1.4 °F67 %29.73 in3.0 miWNW (300°)13.8 mph19.6 mphHaze
1:35 PM10.4 °F1.4 °F67 %29.74 in7.0 miWNW (290°)11.5 mph19.6 mphOvercast
1:55 PM10.4 °F-0.4 °F62 %29.75 in7.0 miNW (310°)12.7 mph18.4 mphOvercast
2:15 PM10.4 °F1.4 °F67 %29.76 in3.0 miNW (310°)12.7 mph20.7 mphHaze
2:35 PM10.4 °F-0.4 °F62 %29.76 in7.0 miWNW (290°)11.5 mph17.3 mphOvercast
2:55 PM10.4 °F-0.4 °F62 %29.77 in7.0 miWNW (300°)11.5 mph21.9 mphOvercast
3:15 PM8.6 °F1.4 °F73 %29.79 in3.0 miWNW (300°)11.5 mph20.7 mphHaze
3:35 PM8.6 °F-0.4 °F67 %29.80 in7.0 miWNW (290°)11.5 mph18.4 mphOvercast
3:55 PM8.6 °F1.4 °F73 %29.81 in3.0 miNW (320°)6.9 mphSnowLight Snow
4:15 PM6.8 °F-0.4 °F72 %29.83 in7.0 miWNW (300°)11.5 mphMostly Cloudy
4:35 PM6.8 °F-2.2 °F67 %29.84 in7.0 miNW (310°)12.7 mph16.1 mphMostly Cloudy
4:55 PM5.0 °F-4.0 °F66 %29.85 in10.0 miWNW (300°)11.5 mphMostly Cloudy
5:15 PM5.0 °F-4.0 °F66 %29.86 in7.0 miWNW (290°)5.8 mphOvercast
5:35 PM5.0 °F-2.2 °F72 %29.87 in10.0 miWNW (290°)8.1 mphMostly Cloudy
5:55 PM3.2 °F-2.2 °F78 %29.88 in7.0 miWNW (300°)6.9 mphMostly Cloudy
6:15 PM3.2 °F-2.2 °F78 %29.89 in7.0 miWNW (290°)6.9 mphOvercast
6:35 PM3.2 °F-2.2 °F78 %29.90 in4.0 miWNW (290°)5.8 mphHaze
6:55 PM3.2 °F-0.4 °F85 %29.91 in7.0 miWNW (290°)8.1 mphMostly Cloudy
7:15 PM3.2 °F-2.2 °F78 %29.92 in7.0 miWest (280°)9.2 mph17.3 mphMostly Cloudy
7:35 PM3.2 °F-4.0 °F72 %29.92 in7.0 miWest (280°)8.1 mphMostly Cloudy
7:55 PM3.2 °F-4.0 °F72 %29.93 in7.0 miWNW (290°)10.4 mphOvercast
8:15 PM1.4 °F-4.0 °F78 %29.93 in7.0 miWest (280°)8.1 mphScattered Clouds
8:35 PM1.4 °F-4.0 °F78 %29.94 in10.0 miWNW (290°)9.2 mphClear
8:55 PM1.4 °F-4.0 °F78 %29.95 in10.0 miWNW (290°)10.4 mphScattered Clouds
9:15 PM1.4 °F-4.0 °F78 %29.96 in10.0 miWNW (290°)8.1 mphScattered Clouds
9:35 PM1.4 °F-5.8 °F72 %29.96 in10.0 miWNW (290°)9.2 mphScattered Clouds
9:55 PM1.4 °F-5.8 °F72 %29.97 in10.0 miWNW (290°)8.1 mphScattered Clouds
10:15 PM-0.4 °F-5.8 °F78 %29.97 in10.0 miWest (280°)8.1 mphScattered Clouds
10:35 PM-0.4 °F-5.8 °F78 %29.97 in10.0 miWNW (290°)9.2 mphMostly Cloudy
10:55 PM-0.4 °F-5.8 °F78 %29.98 in10.0 miWNW (290°)8.1 mph16.1 mphScattered Clouds
11:15 PM-0.4 °F-5.8 °F78 %29.98 in10.0 miWNW (290°)6.9 mphScattered Clouds
11:35 PM-0.4 °F-5.8 °F78 %29.99 in10.0 miWest (280°)6.9 mphScattered Clouds
11:55 PM-0.4 °F-7.6 °F72 %29.99 in10.0 miWest (280°)6.9 mphClear
Hourly data recorded from KTKV, located miles away from Spirit Falls, Wisconsin







STORIES FROM OUR PARTNERS